EW8073 Weather Reports


time (UTC)temp
C
wind
direction
speed
KPH
gust
KPH
rain 1hr
cm
rain 24hr
cm
rain mn
cm
humidity
%
barometer
mb
20260505234623 0 333 0.0 1.6 0.00 0.05 0.05 88 1012.2
20260505234117 1 333 0.0 1.6 0.00 0.05 0.05 88 1012.0
20260505233612 1 333 0.0 3.2 0.00 0.05 0.05 88 1012.0
20260505232600 1 333 0.0 4.8 0.00 0.05 0.05 88 1012.2
20260505231547 2 250 1.6 9.7 0.00 0.05 0.05 88 1012.2
20260505231042 2 355 1.6 9.7 0.00 0.05 0.05 88 1012.3
20260505230536 3 319 1.6 8.0 0.00 0.05 0.05 89 1012.4
20260505225524 3 316 0.0 6.4 0.03 0.05 0.05 88 1011.8
20260505225017 3 316 1.6 6.4 0.03 0.05 0.05 88 1011.6
20260505224511 3 315 1.6 9.7 0.03 0.05 0.05 88 1011.5
20260505224006 3 351 1.6 9.7 0.03 0.05 0.05 89 1011.3
20260505223501 3 345 1.6 8.0 0.03 0.05 0.05 89 1011.2
20260505222954 3 351 1.6 8.0 0.03 0.05 0.05 88 1011.3
20260505221942 3 355 1.6 12.9 0.03 0.05 0.05 88 1011.3
20260505221435 3 355 1.6 12.9 0.03 0.05 0.05 88 1011.3
20260505220424 3 355 1.6 11.3 0.03 0.05 0.05 88 1011.0
20260505215917 4 355 1.6 6.4 0.00 0.03 0.03 88 1011.0
20260505215411 4 325 1.6 11.3 0.00 0.03 0.03 88 1011.1
20260505214906 5 75 0.0 11.3 0.00 0.03 0.03 88 1011.1
20260505214359 5 335 1.6 6.4 0.00 0.03 0.03 88 1011.0
20260505213854 5 345 0.0 6.4 0.00 0.03 0.03 88 1011.0
20260505213348 5 348 0.0 3.2 0.00 0.03 0.03 88 1011.0
20260505212841 5 347 0.0 4.8 0.00 0.03 0.03 88 1011.1
20260505212335 5 65 0.0 6.4 0.00 0.03 0.03 88 1011.1
20260505211325 5 76 0.0 6.4 0.00 0.03 0.03 89 1011.0
20260505210819 5 65 0.0 6.4 0.00 0.03 0.03 89 1011.1
20260505210312 5 78 0.0 4.8 0.00 0.03 0.03 89 1011.1
20260505205806 5 79 0.0 3.2 0.00 0.03 0.03 89 1011.3
20260505204247 5 86 0.0 6.4 0.00 0.03 0.03 89 1011.7
20260505203247 5 87 0.0 3.2 0.00 0.03 0.03 89 1011.9
20260505202744 5 87 0.0 4.8 0.00 0.03 0.03 89 1012.0
20260505201742 5 87 0.0 3.2 0.00 0.03 0.03 89 1012.3
20260505200740 5 87 0.0 4.8 0.00 0.03 0.03 89 1012.2
20260505200238 5 87 0.0 4.8 0.00 0.03 0.03 89 1012.2
20260505195736 5 88 0.0 3.2 0.00 0.03 0.03 89 1012.3
20260505195236 5 88 0.0 4.8 0.00 0.03 0.03 89 1012.3
20260505194735 5 88 0.0 4.8 0.00 0.03 0.03 89 1012.3
20260505194234 5 88 0.0 4.8 0.00 0.03 0.03 89 1012.2
20260505193734 5 88 0.0 4.8 0.00 0.03 0.03 89 1012.2
20260505193232 5 82 0.0 4.8 0.00 0.03 0.03 89 1012.0
20260505192732 5 82 1.6 6.4 0.00 0.03 0.03 89 1012.0
20260505192234 5 82 0.0 6.4 0.00 0.03 0.03 89 1011.9
20260505191731 5 85 0.0 3.2 0.00 0.03 0.03 90 1011.9
20260505190733 5 88 0.0 4.8 0.00 0.03 0.03 90 1012.2
20260505185724 5 88 0.0 3.2 0.00 0.03 0.03 90 1012.4
20260505185224 5 88 0.0 3.2 0.00 0.03 0.03 90 1012.4
20260505184723 5 88 1.6 4.8 0.00 0.03 0.03 90 1012.5
20260505184224 5 88 0.0 4.8 0.00 0.03 0.03 90 1012.6
20260505183724 5 88 0.0 3.2 0.00 0.03 0.03 90 1012.7
20260505183223 5 88 0.0 3.2 0.00 0.03 0.03 90 1012.7
20260505182724 4 88 0.0 3.2 0.00 0.03 0.03 90 1012.7
20260505182221 4 89 0.0 3.2 0.00 0.03 0.03 90 1012.6
20260505181720 4 89 0.0 4.8 0.03 0.03 0.03 90 1012.7
20260505181218 4 89 1.6 4.8 0.03 0.03 0.03 90 1013.0
20260505180715 4 89 0.0 4.8 0.03 0.03 0.03 90 1013.1
20260505180216 4 61 0.0 3.2 0.03 0.03 0.03 90 1013.1
20260505175218 4 58 0.0 4.8 0.03 0.03 0.03 90 1013.2
20260505174719 4 55 0.0 3.2 0.03 0.03 0.03 90 1013.3
20260505174215 4 54 0.0 6.4 0.03 0.03 0.03 90 1013.4
20260505173716 4 51 0.0 6.4 0.03 0.03 0.03 90 1013.4
20260505172711 4 70 0.0 3.2 0.03 0.03 0.03 90 1013.4
20260505171711 4 67 0.0 4.8 0.00 0.00 0.00 90 1013.4
20260505171211 4 65 0.0 4.8 0.00 0.00 0.00 90 1013.3
20260505170711 3 65 0.0 4.8 0.00 0.00 0.00 90 1013.4
20260505170212 3 65 0.0 3.2 0.00 0.00 0.00 90 1013.4
20260505165708 3 63 0.0 3.2 0.00 0.00 0.00 90 1013.6
20260505164708 3 63 0.0 1.6 0.00 0.00 0.00 90 1013.6
20260505164207 3 61 0.0 3.2 0.00 0.00 0.00 90 1013.6
20260505163707 3 52 0.0 3.2 0.00 0.00 0.00 90 1013.7
20260505163208 3 54 0.0 3.2 0.00 0.00 0.00 90 1013.7
20260505162707 3 53 0.0 4.8 0.00 0.00 0.00 90 1013.6
20260505162208 3 53 0.0 4.8 0.00 0.00 0.00 90 1013.7
20260505161707 3 53 0.0 1.6 0.00 0.00 0.00 90 1013.7
20260505161203 3 53 0.0 1.6 0.00 0.00 0.00 90 1013.7
20260505160703 3 53 0.0 3.2 0.00 0.00 0.00 90 1013.8
20260505160203 3 53 0.0 3.2 0.00 0.00 0.00 90 1013.8
20260505152155 3 33 0.0 1.6 0.00 0.00 0.00 90 1014.0
20260505151653 3 33 0.0 1.6 0.00 0.00 0.00 90 1014.0
20260505151153 3 33 0.0 3.2 0.00 0.00 0.00 89 1014.0
20260505150653 3 33 0.0 3.2 0.00 0.00 0.00 89 1014.0
20260505150151 3 342 0.0 3.2 0.00 0.00 0.00 89 1013.9
20260505124920 3 324 0.0 1.6 0.00 0.00 0.00 88 1013.1
20260505124422 3 327 0.0 4.8 0.00 0.00 0.00 88 1012.9
20260505123909 3 54 0.0 4.8 0.00 0.00 0.00 88 1012.9
20260505123404 3 340 1.6 4.8 0.00 0.00 0.00 88 1012.9
20260505122856 3 342 0.0 4.8 0.00 0.00 0.00 88 1012.9
20260505122350 3 349 0.0 3.2 0.00 0.00 0.00 88 1013.0
20260505121844 3 342 0.0 9.7 0.00 0.00 0.00 88 1012.7
20260505121339 3 342 1.6 9.7 0.00 0.00 0.00 88 1012.6
20260505120833 3 350 1.6 8.0 0.00 0.00 0.00 88 1012.6
20260505120327 3 5 1.6 9.7 0.00 0.00 0.00 88 1012.6
20260505115821 3 336 1.6 9.7 0.00 0.00 0.00 88 1012.6
20260505115314 3 355 1.6 9.7 0.00 0.00 0.00 87 1012.4
20260505114809 4 294 0.0 4.8 0.00 0.00 0.00 88 1012.3
20260505114303 4 312 0.0 6.4 0.00 0.00 0.00 88 1012.4
20260505113756 4 26 0.0 6.4 0.00 0.00 0.00 87 1012.4
20260505113251 4 345 0.0 3.2 0.00 0.00 0.00 88 1012.3
20260505112744 4 299 0.0 6.4 0.00 0.00 0.00 88 1012.3
20260505111734 4 259 0.0 3.2 0.00 0.00 0.00 87 1012.2
20260505111228 4 43 0.0 3.2 0.00 0.00 0.00 87 1012.0
20260505110722 4 36 0.0 3.2 0.00 0.00 0.00 87 1011.8
20260505110218 5 78 0.0 3.2 0.00 0.00 0.00 87 1011.6
20260505102127 5 71 0.0 4.8 0.00 0.00 0.00 87 1011.0
20260505101115 5 76 0.0 1.6 0.00 0.00 0.00 87 1010.9
20260505100608 5 90 0.0 6.4 0.00 0.00 0.00 87 1010.8
20260505095051 5 94 0.0 4.8 0.00 0.00 0.00 86 1010.5
20260505094550 6 64 0.0 4.8 0.00 0.00 0.00 86 1010.5
20260505094050 6 82 0.0 4.8 0.00 0.00 0.00 86 1010.4
20260505093551 6 91 0.0 9.7 0.00 0.00 0.00 86 1010.3
20260505093048 6 88 0.0 9.7 0.00 0.00 0.00 86 1010.3
20260505092049 7 86 0.0 16.1 0.00 0.00 0.00 86 1010.3
20260505091552 7 87 0.0 4.8 0.00 0.00 0.00 87 1010.1
20260505091049 7 80 0.0 1.6 0.00 0.00 0.00 86 1010.1
20260505090546 8 80 0.0 4.8 0.00 0.00 0.00 86 1009.9
20260505090045 8 80 0.0 6.4 0.00 0.00 0.00 86 1010.1
20260505085545 8 84 0.0 6.4 0.00 0.00 0.00 86 1010.1
20260505085045 8 89 0.0 6.4 0.00 0.00 0.00 86 1010.2
20260505084544 8 80 0.0 4.8 0.00 0.00 0.00 86 1010.2
20260505083544 8 269 0.0 1.6 0.00 0.00 0.00 86 1010.2
20260505083042 9 268 0.0 0.0 0.00 0.00 0.00 86 1010.2
20260505082543 9 268 0.0 0.0 0.00 0.00 0.00 86 1010.2
20260505082038 9 268 0.0 0.0 0.00 0.00 0.00 86 1010.2
20260505081539 9 268 0.0 0.0 0.00 0.00 0.00 86 1010.3
20260505081038 9 268 0.0 0.0 0.00 0.00 0.00 86 1010.4
20260505080538 9 268 0.0 1.6 0.00 0.00 0.00 86 1010.3
20260505075539 9 268 0.0 0.0 0.00 0.00 0.00 86 1010.4
20260505075038 9 268 0.0 1.6 0.00 0.00 0.00 86 1010.4
20260505074539 9 268 0.0 1.6 0.00 0.00 0.00 86 1010.4
20260505074039 9 267 0.0 0.0 0.00 0.00 0.00 86 1010.4
20260505073538 9 267 0.0 0.0 0.00 0.00 0.00 86 1010.4
20260505073038 9 267 0.0 0.0 0.00 0.00 0.00 86 1010.3
20260505072039 9 267 0.0 0.0 0.00 0.00 0.00 85 1010.4
20260505071538 9 267 0.0 0.0 0.00 0.00 0.00 85 1010.3
20260505071038 9 267 0.0 0.0 0.00 0.00 0.00 85 1010.3
20260505070038 9 267 0.0 0.0 0.00 0.00 0.00 86 1010.3
20260505065538 9 267 0.0 0.0 0.00 0.00 0.00 86 1010.3
20260505065039 9 267 0.0 0.0 0.00 0.00 0.00 86 1010.3
20260505064539 9 267 0.0 0.0 0.00 0.00 0.00 86 1010.4
20260505064041 9 267 0.0 0.0 0.00 0.00 0.00 86 1010.3
20260505063036 9 267 0.0 0.0 0.00 0.00 0.00 85 1010.4
20260505062535 9 267 0.0 0.0 0.00 0.00 0.00 85 1010.4
20260505062034 9 267 0.0 0.0 0.00 0.00 0.00 85 1010.4
20260505061534 9 267 0.0 0.0 0.00 0.00 0.00 85 1010.6
20260505061034 9 267 0.0 0.0 0.00 0.00 0.00 85 1010.8
20260505060534 9 267 0.0 0.0 0.00 0.00 0.00 85 1010.6
20260505060030 9 267 0.0 0.0 0.00 0.00 0.00 85 1010.6
20260505055532 9 267 0.0 0.0 0.00 0.00 0.00 85 1010.5
20260505055029 9 267 0.0 0.0 0.00 0.00 0.00 85 1010.5
20260505054531 9 267 0.0 0.0 0.00 0.00 0.00 85 1010.3
20260505054025 10 267 0.0 0.0 0.00 0.00 0.00 84 1010.2
20260505053519 10 267 0.0 0.0 0.00 0.00 0.00 84 1010.2
20260505052509 10 267 0.0 0.0 0.00 0.00 0.00 84 1010.2
20260505052003 10 267 0.0 0.0 0.00 0.00 0.00 84 1010.3
20260505051456 10 267 0.0 0.0 0.00 0.00 0.00 83 1010.5
20260505050950 10 269 0.0 0.0 0.00 0.00 0.00 83 1010.5
20260505050443 10 270 0.0 0.0 0.00 0.00 0.00 83 1010.3
20260505041347 10 275 0.0 0.0 0.00 0.00 0.00 78 1010.8
20260505040846 10 276 0.0 0.0 0.00 0.00 0.00 78 1010.6
20260505040346 11 277 0.0 0.0 0.00 0.00 0.00 77 1010.6
20260505035846 11 277 0.0 0.0 0.00 0.00 0.00 76 1010.5
20260505035344 11 279 0.0 0.0 0.00 0.00 0.00 75 1010.5
20260505034845 11 279 0.0 0.0 0.00 0.00 0.00 74 1010.5
20260505034342 11 280 0.0 1.6 0.00 0.00 0.00 73 1010.5
20260505033843 11 271 0.0 1.6 0.00 0.00 0.00 72 1010.6
20260505033343 11 0 0.0 0.0 0.00 0.00 0.00 71 1010.5
20260505032843 12 0 0.0 0.0 0.00 0.00 0.00 69 1010.4
20260505031839 12 0 0.0 0.0 0.00 0.00 0.00 66 1010.1
20260505030338 12 87 0.0 0.0 0.00 0.00 0.00 63 1009.7
20260505025839 12 92 0.0 0.0 0.00 0.00 0.00 63 1009.6
20260505025339 12 92 0.0 0.0 0.00 0.00 0.00 63 1009.4
20260505024339 12 71 0.0 0.0 0.00 0.00 0.00 61 1009.4
20260505023839 12 345 0.0 0.0 0.00 0.00 0.00 61 1009.4
20260505022839 13 344 0.0 6.4 0.00 0.00 0.00 60 1009.4
20260505021839 13 344 1.6 8.0 0.00 0.00 0.00 60 1009.1
20260505021338 13 344 1.6 8.0 0.00 0.00 0.00 59 1009.2
20260505020838 13 329 0.0 6.4 0.00 0.00 0.00 57 1009.1
20260505020339 13 346 0.0 1.6 0.00 0.00 0.00 55 1009.2
20260505015839 14 348 0.0 0.0 0.00 0.00 0.00 53 1009.1
20260505015338 14 0 0.0 0.0 0.00 0.00 0.00 52 1009.1
20260505014831 14 348 0.0 1.6 0.00 0.00 0.00 52 1008.9
20260505014325 14 0 0.0 1.6 0.00 0.00 0.00 52 1008.8
20260505013820 14 24 0.0 1.6 0.00 0.00 0.00 51 1008.7
20260505013314 14 0 0.0 0.0 0.00 0.00 0.00 52 1008.7
20260505012808 15 0 0.0 0.0 0.00 0.00 0.00 51 1008.8
20260505012301 15 0 0.0 0.0 0.00 0.00 0.00 51 1008.8
20260505011756 15 285 0.0 0.0 0.00 0.00 0.00 51 1008.7
20260505011250 15 0 0.0 0.0 0.00 0.00 0.00 52 1008.8
20260505010744 15 0 0.0 0.0 0.00 0.00 0.00 52 1008.5
20260505010238 15 0 0.0 0.0 0.00 0.00 0.00 51 1008.5
20260505005731 15 0 0.0 0.0 0.00 0.00 0.00 48 1008.5
20260505004720 15 0 0.0 0.0 0.00 0.00 0.00 47 1008.5
20260505004214 15 0 0.0 1.6 0.00 0.00 0.00 45 1008.4
20260505003709 16 0 0.0 1.6 0.00 0.00 0.00 45 1008.3
20260505003203 16 319 0.0 1.6 0.00 0.00 0.00 44 1008.2
20260505002657 16 11 0.0 1.6 0.00 0.00 0.00 42 1008.2
20260505002149 16 340 0.0 0.0 0.00 0.00 0.00 39 1008.1
20260505001644 16 340 0.0 0.0 0.00 0.00 0.00 39 1008.1
20260505001137 16 325 0.0 0.0 0.00 0.00 0.00 39 1008.0
20260505000631 16 321 0.0 0.0 0.00 0.00 0.00 39 1007.8
20260505000125 16 321 0.0 1.6 0.00 0.00 0.00 39 1007.8
20260504235620 17 318 0.0 1.6 0.00 0.00 0.00 39 1007.7